MysteryTwister C3
NUMBER OF ACTIVE MEMBERS:

8045
Follow us: Facebook Twitter
 



Level I Challenges (75)

Page 1 of the challenges in Level I, ordered by date posted (the most recent appear first).

Monoalphabetic Substitution

[esslinger-02] - 426 users already solved this challenge, 144 are working on it.
 
 
 

This is a famous speech of a German soccer star - including a mistake. The codeword consists of 2 words, one after the other with no space. The first is the password used to encrypt the plaintext, and the second is the mistake in the decrypted text. (The plaintext is in German.)
Read more...

Click here to get to the corresponding forum topic to share your opinion.
Click here to download the challenge.

Author: This email address is being protected from spambots. You need JavaScript enabled to view it.
Published on: 2010-10-14 13:30
Maximum number of attempts for this challenge: 15

All successful users of this challenge

Rank User (#426) Achieved points (Global score) y-m-d - h:m:s

Nobody (nobody) 200 (40618) 2010-10-14 13:35:19
Dennis Nolte (JokerX) 200 (6377) 2010-10-14 17:45:51
Simon Jakob (simon.jakob) 200 (18714) 2010-10-15 01:30:50
Dennis Walter (Lotus) 150 (6977) 2010-10-15 16:44:05
#5 Nabb (Nabb) 133 (13803) 2010-10-16 17:46:14
#6 No you (lolwhat) 133 (2124) 2010-10-16 17:46:26
#7 Thomas Lambert (lambert) 133 (38594) 2010-10-16 18:06:49
#8 Holger Schwarz (BlackAbyss) 133 (266) 2010-10-16 18:40:27
#9 John Smith (donnie) 133 (266) 2010-10-16 20:05:16
#10 Oliver Peters (Avian) 133 (266) 2010-10-16 20:09:00
#11 Kasthelruther Spatz (m36) 133 (266) 2010-10-16 21:28:34
#12 Roadrunner (rr) 133 (12702) 2010-10-16 22:52:17
#13 whaite (whaite) 133 (266) 2010-10-16 23:06:53
#14 R H (BartS23) 133 (266) 2010-10-17 01:57:02
#15 Thomas Arend (Byggvir) 133 (266) 2010-10-17 02:49:46
#16 Andreas J. Bathe (ajb) 133 (266) 2010-10-17 07:11:31
#17 Thomas Hansen (norot) 133 (266) 2010-10-17 09:26:10
#18 Michael Ludwig (michaelll) 125 (258) 2010-10-17 13:37:08
#19 Claude Laveaux (claude.laveaux) 125 (14504) 2010-10-17 14:01:57
#20 Colin Benner (Colin) 125 (1413) 2010-10-17 15:03:08
#21 Christian Landvogt (bailli) 125 (250) 2010-10-17 15:33:31
#22 Marcus Eichmüller (Leus) 125 (258) 2010-10-17 17:38:10
#23 Ralf Stephan (rwst) 125 (22735) 2010-10-17 17:50:23
#24 Zaproth Beeblebrox (chmhnk) 125 (356) 2010-10-17 18:23:16
#25 Floyd Hopes (floydhopes) 125 (250) 2010-10-17 18:25:33
#26 a b (fabulous) 125 (250) 2010-10-17 20:36:36
#27 Stephan Gross (okura) 125 (351) 2010-10-17 22:26:19
#28 Daniel Demmler (dd) 125 (125) 2010-10-17 22:37:27
#29 Wonko the Sane (Wonko) 125 (250) 2010-10-18 01:39:50
#30 Thomas Gonda (TomG) 125 (33741) 2010-10-18 11:05:19
#31 Michael Schöller (swtrse) 125 (350) 2010-10-18 11:19:52
#32 J Br (j.br) 125 (3242) 2010-10-18 12:43:33
#33 Tom Erlang (ter85) 125 (1019) 2010-10-18 12:46:16
#34 Benjamin Jemlich (pcgod) 120 (1858) 2010-10-18 13:43:29
#35 Jan Kattelans (JanKat) 120 (245) 2010-10-18 13:45:38
#36 Ernst Müller (MysteriusM) 120 (120) 2010-10-18 14:51:55
#37 Michael Fischer (MichaelF) 120 (973) 2010-10-18 14:56:39
#38 Armin Hornetz (Calisan) 120 (245) 2010-10-18 15:02:57
#39 Johannes Krupp (nescio) 120 (245) 2010-10-18 15:24:00
#40 Ben H (benh) 120 (535) 2010-10-18 15:28:55
#41 Jascha Bohnet (DCore) 120 (245) 2010-10-18 15:39:49
#42 Christian Winkel (nordlichtHH) 120 (240) 2010-10-18 17:07:02
#43 David Penack (Qvist) 120 (348) 2010-10-18 17:23:15
#44 Arnold Sendler (Tschighor) 120 (1105) 2010-10-18 18:03:17
#45 Carsten Lenz (kAyCeE80) 120 (460) 2010-10-18 19:26:33
#46 Gilbert Schuster (gil) 120 (245) 2010-10-18 20:22:59
#47 Markus Barwig (Dipol) 120 (240) 2010-10-18 20:30:17
#48 Lam Er (xxlamexx) 120 (240) 2010-10-18 20:40:38
#49 futbol playa (futbolplaya) 120 (344) 2010-10-18 20:51:27
#50 pratipistor (pratipistor) 120 (245) 2010-10-18 21:37:46
#51 Axel Wagner (awag) 120 (240) 2010-10-18 21:41:57
#52 FUgaRU (FUgaRU) 120 (240) 2010-10-18 23:46:44
#53 Hermann Lorenz (gmorek) 120 (240) 2010-10-18 23:55:18
#54 Jan-Hendrik Schöler (mystjhs) 120 (240) 2010-10-19 01:19:54
#55 Sebastian Steinmann (teodoc) 120 (5594) 2010-10-19 02:08:06
#56 Timo Flöttmann (dancey) 120 (240) 2010-10-19 11:47:35
#57 dskajgheri eurzcn (dskajgheri) 120 (240) 2010-10-19 12:52:12
#58 Hans Wurst (LordShaggynator) 117 (242) 2010-10-19 14:00:05
#59 Mr Anonym (the_ettin) 117 (234) 2010-10-19 14:28:45
#60 Sven Hagemann (svehag) 117 (237) 2010-10-19 14:30:53
#61 Philipp Berger (ThE_-_BliZZarD) 117 (354) 2010-10-19 16:30:06
#62 Jascha Koch (yosh) 117 (2201) 2010-10-19 18:46:48
#63 Michael Grau (MiG) 117 (242) 2010-10-19 20:14:02
#64 Martin Schubert (scoob) 117 (351) 2010-10-20 09:12:53
#65 Joachim Protze (joschi) 114 (4877) 2010-10-20 14:04:40
#66 Anibal Kürekci (ak187) 114 (967) 2010-10-20 23:52:13
#67 Sebastian Roekens (cyphos) 114 (228) 2010-10-21 10:45:17
#68 Mark Weber (mark93) 114 (247) 2010-10-21 11:53:47
#69 Michail Pokryschkin (micpok) 113 (766) 2010-10-22 10:13:39
#70 Dirk Werner (hudray) 111 (933) 2010-10-22 15:04:27
#71 Ansgar (Ansgar) 111 (236) 2010-10-22 16:21:58
#72 Thomas Mattel (Tom) 111 (2462) 2010-10-22 21:11:48
#73 Thomas Loddenkemper (loddi) 110 (243) 2010-10-23 18:49:11
#74 Grinse Katze (Grinsekatze) 109 (964) 2010-10-24 13:47:24
#75 Raistlin (Majere) 109 (352) 2010-10-24 22:18:53
#76 Ken Fallmann (prodigy) 109 (109) 2010-10-24 23:06:46
#77 Matthias Rottmann (mr66) 109 (594) 2010-10-25 12:44:44
#78 Christoph Orth (orthy) 108 (108) 2010-10-25 15:36:18
#79 Christof Kleber (Loki) 108 (5848) 2010-10-25 17:07:56
#80 Hannes Kremmer (HannesKremmer) 108 (932) 2010-10-25 20:57:22
#81 H. Gregor Molter (cyberdeck) 108 (608) 2010-10-26 14:47:33
#82 Daniel Kovacic (vimix) 108 (336) 2010-10-26 20:58:00
#83 Jörg-Bernd Linnhoff (joberlin) 108 (661) 2010-10-27 12:32:55
#84 Stefan Kühne (subROUTINE) 107 (3595) 2010-10-27 14:37:03
#85 Dennis Heitmann (dennisheitmann) 107 (349) 2010-10-27 16:06:35
#86 Armin Krauss (argh) 107 (152721) 2010-10-27 23:44:13
#87 Martin Kreis (hollemann) 106 (323) 2010-10-29 23:01:34
#88 Markus Brehm (almarkus) 106 (216) 2010-10-30 16:48:02
#89 David (aki321) 105 (27482) 2010-11-01 13:32:35
#90 Gary Hawk (Highlander) 105 (631) 2010-11-03 09:21:15
#91 Bernd Freise (Xanhem) 104 (1154) 2010-11-06 00:13:30
#92 Stephan Schreiber (Zerberus) 104 (524) 2010-11-07 07:15:42
#93 Hans Schuell (hschuell) 104 (2194) 2010-11-07 17:53:58
#94 Carsten Baum (crashti) 104 (1135) 2010-11-08 11:10:46
#95 Ulrich Armbrüster (uarmbruester) 104 (7987) 2010-11-08 17:24:37
#96 Marion Haller (Mary-on) 104 (314) 2010-11-08 21:35:48
#97 Alexander Schneider (schnibbler) 104 (208) 2010-11-09 22:34:41
#98 D Döner (ac715) 104 (313) 2010-11-10 19:11:46
#99 Lars Beckmann (larsbeck) 103 (518) 2010-11-11 21:20:26
#100 Nils Achim Lacke (Babbage) 103 (618) 2010-11-13 14:23:32
#101 Michael Möller (michaelm) 102 (117401) 2010-12-01 21:50:28
#102 Max Mustermann (MustermM) 102 (6661) 2010-12-03 15:46:02
#103 Alex K. (yellowred) 102 (204) 2010-12-08 19:39:27
#104 Hans Rudolf (mutabor) 101 (3015) 2011-01-04 17:58:31
#105 ingo (ingo) 101 (712) 2011-01-04 20:52:42
#106 Wolfgang Weisser (wowmyst) 101 (33108) 2011-01-07 18:33:12
#107 Sebastian (seb) 101 (709) 2011-01-15 18:43:41
#108 Paula Olsen (paol) 101 (825) 2011-01-31 01:09:37
#109 Florian Rüchel (Javex) 101 (721) 2011-01-31 01:51:18
#110 Christine Welsch (krawallchrischtl) 101 (809) 2011-02-04 18:57:07
#111 Jay Bee (jaybee) 101 (1926) 2011-02-07 22:44:58
#112 Fabian Bendun (benfa) 101 (8697) 2011-02-24 21:59:07
#113 Hans Müller (hanschen) 101 (404) 2011-02-28 08:22:35
#114 Christian Nobel (Nobelix) 101 (503) 2011-03-18 12:43:00
#115 rho (rho) 101 (303) 2011-04-02 01:12:35
#116 j.h. (haegarq) 101 (11696) 2011-04-11 16:25:50
#117 Sepp Maier (smai) 101 (1898) 2011-04-17 02:33:28
#118 Case (Case) 101 (505) 2011-04-17 13:49:49
#119 Wombat (Wombat) 101 (5822) 2011-04-23 15:19:32
#120 Marcin Zawadzki (harry007) 101 (3012) 2011-04-29 21:18:23
#121 Egon Hamburger (Seehase) 101 (3445) 2011-05-01 16:16:25
#122 Marc Schmidbauer (BrotInGefahr) 100 (404) 2011-05-08 01:42:48
#123 Muendo (muendo) 100 (3501) 2011-05-08 08:28:15
#124 mad maxx (madmaxx) 100 (300) 2011-05-10 22:17:50
#125 Holti (Holti) 100 (6035) 2011-05-25 19:02:48
#126 thojocro@zehnminutenmail.de (thojocro@zehnminutenmail.) 100 (401) 2011-06-08 00:34:16
#127 Seth Kintigh (DarkFibre) 100 (79471) 2011-06-14 02:31:17
#128 The Killer (Killer) 100 (42393) 2011-06-17 20:41:59
#129 Maurice Parthier (bobthemaster) 100 (705) 2011-07-10 07:33:03
#130 Stefan Haas (stef_the_chef) 100 (4329) 2011-07-11 22:17:44
#131 Peter Mustermann (Gummiboot) 100 (60285) 2011-07-12 11:02:58
#132 Daniel Fretwell (fretty) 100 (30107) 2011-07-15 12:05:05
#133 J P (Cugu) 100 (513) 2011-07-19 22:13:36
#134 Robbt Neid (Das Tupel) 100 (9403) 2011-07-24 20:35:38
#135 Dano (Dano) 100 (14610) 2011-07-30 22:49:51
#136 dbuq (dbuq) 100 (22762) 2011-08-03 17:01:28
#137 Viktor (Veselovský) 100 (113116) 2011-08-12 20:57:52
#138 lbt (lbt) 100 (100) 2011-08-16 01:52:35
#139 Nicolas Golubovic (qll) 100 (14919) 2011-08-16 01:53:16
#140 Qinncade (Qinncade) 100 (2460) 2011-08-17 09:34:11
#141 h3po (h3po) 100 (20433) 2011-08-19 19:07:34
#142 Ph il (audioPhil) 100 (1935) 2011-08-22 23:42:41
#143 Lu Kas (DrunkenPanda) 100 (1835) 2011-08-22 23:43:07
#144 Horst Kevin (lordstege) 100 (1419) 2011-08-28 13:46:24
#145 J. M. (jomandi) 100 (113270) 2011-09-20 23:36:45
#146 Jay Kay (Merty) 100 (3726) 2011-09-25 14:39:46
#147 Anton Wendel (MoD) 100 (5679) 2011-09-28 20:14:29
#148 Gideon Knocke (0xff) 100 (601) 2011-10-13 23:58:41
#149 mister pinball (mister) 100 (200) 2011-10-15 08:09:04
#150 Christian Matt (Luy) 100 (9889) 2011-10-23 04:35:39
#151 Bart den Hartog (Bart13) 100 (116412) 2011-11-01 14:06:14
#152 Lassu Eger (Hun) (slowmouse) 100 (1118) 2011-11-27 12:47:48
#153 Dieter Rosin (D0n Quix0rt) 100 (200) 2011-12-04 20:40:10
#154 Flo Geht_dich gar_nichts_an (flo) 100 (6271) 2011-12-11 02:01:47
#155 Michael Gürtler (michaelg) 100 (4128) 2011-12-15 16:57:35
#156 Nathan (Witten) 100 (25326) 2011-12-16 11:43:49
#157 Tom (kryptom05) 100 (100) 2011-12-27 15:12:42
#158 Matthias Schwarzkopf (MatzeAT) 100 (2967) 2012-01-03 15:09:53
#159 Sabrina Ryser (Sabse15) 100 (506) 2012-01-14 00:25:52
#160 Philipp Knapp (philipp312) 100 (3357) 2012-01-15 13:43:59
#161 Tom Tox (tox) 100 (11752) 2012-01-18 16:30:53
#162 astrid (nellli) 100 (500) 2012-01-31 14:20:08
#163 Michael Sommer (M1S) 100 (635) 2012-01-31 22:38:24
#164 Timo Culmann (TomCat73) 100 (801) 2012-02-08 21:53:30
#165 Simon S. (Simon) 100 (500) 2012-02-09 21:04:10
#166 Ulrich Dorobeck (Papageno) 100 (3422) 2012-02-11 15:15:25
#167 Hans Peter (hanspeter) 100 (48115) 2012-02-14 18:45:27
#168 John (Tiger) 100 (1505) 2012-02-21 00:10:17
#169 Benjamin Walter (Xemrox) 100 (701) 2012-02-26 14:50:46
#170 shaola (shaola) 100 (300) 2012-02-26 15:20:22
#171 Julia Boswell (jb_87) 100 (300) 2012-02-29 22:49:34
#172 Benne (post_ex0dus) 100 (601) 2012-03-01 12:25:25
#173 Sven Ebenfeld (twen) 100 (401) 2012-03-01 23:12:16
#174 Felix Mohr (winterwolf) 100 (2364) 2012-03-05 15:41:17
#175 Kurt Gebauer (Yokozuna) 100 (120839) 2012-03-05 21:49:49
#176 Dusan (xxdradus) 100 (40134) 2012-04-02 13:44:27
#177 H. Lautenschlager (helmi) 100 (18162) 2012-04-20 22:07:51
#178 Uli Dulli (Uli Dulli) 100 (1408) 2012-04-30 19:18:57
#179 Matthias Brand (cyberwoozle) 100 (1896) 2012-05-02 22:09:17
#180 Christof B. (beans90) 100 (9488) 2012-05-05 20:29:21
#181 captp (bdcht) 100 (5864) 2012-05-08 21:51:13
#182 Michel Van Caneghem (vancan) 100 (49719) 2012-06-04 17:08:32
#183 zuben c3 (zuben-c3) 100 (15014) 2012-06-05 11:13:40
#184 Bernd Klimaschewski (cryptonoob) 100 (1003) 2012-06-05 19:42:25
#185 Craig Martek (craigatron) 100 (500) 2012-06-11 00:18:36
#186 Daniel Richter (TheHiveMind) 100 (11147) 2012-06-13 14:04:10
#187 masam (jimboo) 100 (18486) 2012-06-18 17:02:43
#188 Peter Grosse-Hering (Peter) 100 (8097) 2012-06-26 11:46:27
#189 Sebastian Mederle (Thistle) 100 (1202) 2012-06-30 16:53:39
#190 John Simon (aquadraht) 100 (802) 2012-07-03 18:29:49
#191 Manfred Wurm (Tschabobo) 100 (7619) 2012-07-06 18:47:32
#192 Erwin Brenner (Ometheon) 100 (500) 2012-07-06 19:59:20
#193 Sebastian Slupina (Grandwizard) 100 (6901) 2012-07-13 03:17:07
#194 Chakay (Chakay) 100 (900) 2012-07-23 01:39:36
#195 Stepan (m1sterx) 100 (19165) 2012-07-24 19:42:01
#196 Urs Gysler (Sansibar) 100 (3164) 2012-07-26 22:13:57
#197 Max (131x) 100 (1659) 2012-08-08 00:14:32
#198 Victoria Fehr (Rika) 100 (1472) 2012-08-15 15:23:31
#199 Ignacio (Moebiusar) 100 (4774) 2012-08-19 01:25:52
#200 RPH (derichard) 100 (27044) 2012-09-03 21:38:41
#201 tuighin (tuighi) 100 (609) 2012-09-05 21:16:53
#202 KW (qwer*) 100 (13753) 2012-09-06 21:19:01
#203 Hank (hanky) 100 (22859) 2012-09-11 22:12:53
#204 Fitzcarraldo (fitzcarraldo) 100 (907) 2012-09-14 00:48:55
#205 Harry (Schwabenbambi) 100 (2409) 2012-09-17 17:02:37
#206 Hannes (Hartmann) 100 (8680) 2012-09-20 22:46:03
#207 Benny (Kingombo) 100 (3663) 2012-09-22 23:12:01
#208 Martina (Nikita) 100 (3863) 2012-09-24 00:04:48
#209 Paul Pantea (Soarele007) 100 (2695) 2012-10-21 18:28:05
#210 Alexander Dockhorn (Descartes) 100 (1200) 2012-10-24 12:59:19
#211 Christian (md6) 100 (1404) 2012-10-27 20:22:20
#212 Lukas Juhrich (ljuhrich) 100 (5453) 2012-10-31 21:27:11
#213 The Enigma (enigma) 100 (14336) 2012-11-04 01:09:08
#214 Julia Werdelmann (jw) 100 (10407) 2012-11-11 13:25:47
#215 George (Theofanidis) 100 (88988) 2012-11-19 13:38:37
#216 Jan Temme (JaT3) 100 (11694) 2012-12-09 03:34:18
#217 Gary Lee (garylee) 100 (2171) 2012-12-09 15:20:07
#218 Jan (Yazoh) 100 (1000) 2012-12-29 22:58:56
#219 Roger (gonix) 100 (901) 2013-01-01 18:29:05
#220 Thomas Hahn (4OsoCg31XYcO) 100 (1703) 2013-01-09 23:27:12
#221 kevin shaw (steggily) 100 (2298) 2013-01-16 17:39:33
#222 Iain Sharp (WoodenHedgehog) 100 (2196) 2013-01-16 17:40:56
#223 Daniel Hofer (Dada963) 100 (1001) 2013-01-27 15:52:23
#224 Michal (misoxxx) 100 (1710) 2013-02-05 18:46:06
#225 Snake (snk) 100 (51689) 2013-02-24 17:29:34
#226 Frans (fransl) 100 (2233) 2013-02-28 13:38:29
#227 Franc Marx (francmarx) 100 (900) 2013-03-12 09:50:02
#228 Hans Joachim Girulat (joregi) 100 (28462) 2013-03-13 23:05:03
#229 Velko Nikolov (staafl) 100 (13467) 2013-03-28 18:04:58
#230 Luigi Tomelli (archstanton) 100 (95549) 2013-04-01 15:08:27
#231 mk (bilbobeutlin) 100 (12340) 2013-04-03 22:43:14
#232 Ramon Rojas (superme) 100 (3409) 2013-04-14 05:04:22
#233 Petra (humppapenguin) 100 (3872) 2013-04-17 15:21:12
#234 swarmspider (swarmspider) 100 (4425) 2013-04-18 13:50:25
#235 Oliver Schneider (cenn81) 100 (1100) 2013-04-22 23:32:11
#236 Rolf (Dupre) 100 (700) 2013-04-23 13:09:51
#237 Almut (problelmo) 100 (45992) 2013-04-23 21:04:04
#238 Bernhard Gruber (bgr) 100 (22631) 2013-04-24 11:21:03
#239 Michael Reich (Walli) 100 (2288) 2013-04-24 14:02:34
#240 Frederik (Freed) 100 (900) 2013-04-24 21:37:30
#241 Stefan (sdn) 100 (5137) 2013-04-25 14:11:25
#242 Step (l0rdp3rth) 100 (836) 2013-04-25 14:33:54
#243 Philipp (Kohai) 100 (2208) 2013-04-25 15:59:54
#244 Brian Tawney (btawney) 100 (500) 2013-04-27 23:33:22
#245 Y (Yoshio) 100 (2194) 2013-04-28 14:51:31
#246 HE (hendeng) 100 (1600) 2013-05-03 15:57:03
#247 Felix (Flix) 100 (13612) 2013-05-06 17:19:25
#248 Jörg Schwarzwälder (secuso) 100 (1509) 2013-05-08 22:46:35
#249 Georgius Stolte (HazmatsFear) 100 (14247) 2013-05-11 08:58:46
#250 Hansemann (hansemak) 100 (3522) 2013-05-13 16:46:29
#251 Fuge (fugitech) 100 (917) 2013-05-19 23:04:04
#252 Alexander Buerger (a.buerger) 100 (2332) 2013-05-23 14:33:15
#253 CryptY (Grompf) 100 (2880) 2013-05-28 17:26:17
#254 Peter Krause (H.M.Voynich) 100 (900) 2013-06-04 15:37:02
#255 E.T (Ertheb) 100 (54872) 2013-06-13 11:26:23
#256 Friedemann (friede) 100 (3599) 2013-06-26 17:33:00
#257 Steve (Samacian) 100 (23704) 2013-06-28 15:23:05
#258 Laura (Weltenwandlerin) 100 (1004) 2013-06-29 21:16:28
#259 Sascha (DoctorHell) 100 (1305) 2013-07-09 23:08:43
#260 Vlatiha Romanova (Vlatiha) 100 (10223) 2013-07-15 16:17:06
#261 Philipp Hammer-Pohlau (phase2) 100 (17981) 2013-07-18 09:15:02
#262 Gronas (gronas) 100 (2567) 2013-07-21 18:52:12
#263 Forrest Gump (Polyphem) 100 (38763) 2013-07-24 23:07:56
#264 zahir mohsen moradi (ariobarzan) 100 (99757) 2013-08-05 21:29:03
#265 Em Doulgerakis (Greko) 100 (109970) 2013-08-08 14:45:30
#266 Andreas H. (Cyrpius) 100 (2666) 2013-08-15 20:36:20
#267 Stefan Schenk (schenkst) 100 (300) 2013-08-17 00:24:50
#268 Sebastian Kluge (zappo) 100 (1801) 2013-09-02 18:04:31
#269 Andreas Wolff (timberwolff) 100 (1340) 2013-09-08 12:19:35
#270 Alexander (cruachan) 100 (16051) 2013-09-14 01:42:56
#271 Gergely Simon (george314) 100 (16555) 2013-09-27 01:10:57
#272 Erich (ErichSt) 100 (4862) 2013-09-29 17:39:29
#273 Jens (McStryke) 100 (1600) 2013-10-23 21:27:20
#274 netzfritze (netzfritze) 100 (700) 2013-10-25 10:58:36
#275 Boris (Kaasu) 100 (16566) 2013-10-31 16:36:31
#276 Alexx (Nukualofa) 100 (100) 2013-10-31 20:44:22
#277 Hannes Nötzli (Faust) 100 (4781) 2013-11-07 14:44:08
#278 Bernd (Bughunter42) 100 (1100) 2013-11-14 11:41:24
#279 Zakk (zjacreman) 100 (500) 2013-11-19 05:36:28
#280 Claudi (bucaneros) 100 (701) 2013-11-24 19:43:34
#281 pablo (cooltrain) 100 (1500) 2013-11-26 21:05:18
#282 qwertz (pA8PFj6BGpZlUN0ddLYq) 100 (800) 2013-11-29 16:17:40
#283 Jim Gillogly (Scryer) 100 (21260) 2013-12-01 21:37:16
#284 artmagic (artmagic) 100 (6298) 2013-12-05 16:22:20
#285 Francisco Moraes (fmoraes) 100 (90044) 2013-12-10 17:46:52
#286 Mike (mike123) 100 (500) 2013-12-11 22:40:55
#287 cworstell (ace2) 100 (4870) 2013-12-12 04:49:42
#288 george lasry (george4096) 100 (41247) 2013-12-12 17:02:19
#289 Alain (Integral) 100 (198642) 2013-12-14 19:56:07
#290 Kim H. S. (tenchijin) 100 (21386) 2013-12-26 08:20:40
#291 daskleine (daskleine123) 100 (2148) 2013-12-28 19:49:47
#292 Csaba Fitzl (csaby) 100 (6696) 2013-12-29 22:15:43
#293 Bertold (bk) 100 (8972) 2013-12-30 15:05:42
#294 Pavel (haw) 100 (22728) 2014-01-01 20:14:30
#295 Sebastian Liebl (Basti van Tasti) 100 (2548) 2014-01-05 11:35:06
#296 Stefan Reek (GeneralFailure) 100 (300) 2014-01-12 18:57:49
#297 Felix Eckardt (Felck) 100 (3464) 2014-01-20 00:09:22
#298 Merlin de la Haye (Merlin) 100 (700) 2014-01-20 18:21:04
#299 Dominik (Pistol) 100 (700) 2014-01-21 01:18:05
#300 Josef Gillhuber (jogimi51) 100 (2446) 2014-01-22 00:29:16
#301 Marcel (bene1512) 100 (20896) 2014-01-30 19:56:12
#302 Flo (0knowledge) 100 (902) 2014-02-02 22:19:07
#303 Flo (sealth) 100 (13472) 2014-02-08 21:27:01
#304 Nofre Tete (noffi) 100 (10522) 2014-02-09 18:43:56
#305 schloenz (shlnz) 100 (900) 2014-02-10 00:21:34
#306 Mepo (Marshall) 100 (1000) 2014-02-11 19:59:19
#307 Sascha (The Hoddich) 100 (4350) 2014-02-21 12:33:50
#308 Joerg Schaeffler (DrAcula) 100 (2948) 2014-03-06 11:53:28
#309 Karl Schutt (günter) 100 (34469) 2014-03-23 18:50:52
#310 Siggi Kraus (Kruxi) 100 (701) 2014-04-24 20:51:09
#311 Joe (IlmJoe) 100 (2938) 2014-05-06 14:48:54
#312 Matthias (mrcreosote) 100 (1100) 2014-05-16 15:08:28
#313 Thomas Schmucker (dg) 100 (26066) 2014-05-30 15:29:30
#314 Simone (Momo) 100 (5478) 2014-06-07 22:17:12
#315 HerrVo (HerrVo) 100 (1000) 2014-06-10 17:49:01
#316 Jian Wen (XxWappenxX) 100 (4048) 2014-06-16 15:35:55
#317 Armin Eckert (eckert100@gmail.com) 100 (900) 2014-06-21 19:17:53
#318 Julia Bernotat (El Greco ) 100 (81129) 2014-07-16 22:08:16
#319 julius gaius (julius) 100 (25581) 2014-07-19 18:04:26
#320 Hughes (hughes) 100 (4534) 2014-07-27 17:11:58
#321 Robert (rm) 100 (56012) 2014-07-31 23:48:50
#322 Tiloan (Tiloan) 100 (3840) 2014-08-17 12:30:45
#323 Andreas Frerichs (Ossili) 100 (33026) 2014-08-22 09:22:36
#324 Ekrem Aydin (Eko115) 100 (200) 2014-08-30 22:32:29
#325 Peter Lustig (arsen) 100 (2838) 2014-09-01 07:36:53
#326 Isabella (Isa) 100 (4235) 2014-09-01 19:24:10
#327 Dmitry (DmitryMikhailov) 100 (1300) 2014-09-05 19:31:49
#328 Falk Fleischer (fafl) 100 (200) 2014-09-09 14:52:46
#329 Kerstin (herzchen412) 100 (3937) 2014-09-17 12:08:15
#330 testgrr (testgrr) 100 (3940) 2014-10-05 11:35:50
#331 Lane Williams (planetlane) 100 (6248) 2014-10-18 23:28:19
#332 Señor Saturn (senorsaturn) 100 (3344) 2014-10-20 23:27:49
#333 jej (stationz) 100 (4939) 2014-11-09 14:07:42
#334 HolgerK (HolgerK) 100 (23648) 2014-11-21 20:21:30
#335 Tim Fink (Magellan) 100 (3726) 2014-12-12 22:03:25
#336 ab (ababab) 100 (200) 2014-12-16 22:30:23
#337 Danny Higgins (hamster147) 100 (14185) 2014-12-28 10:02:47
#338 DirkS (Dustman) 100 (8378) 2014-12-29 12:47:26
#339 Nik Maks (nik) 100 (1201) 2015-01-02 09:39:41
#340 Kai Ludwig (TalentRaspel) 100 (15704) 2015-01-05 00:20:47
#341 Rainer Zufall (kiekuk) 100 (42198) 2015-02-22 20:28:37
#342 WF (f077) 100 (6774) 2015-02-23 18:36:16
#343 chris_3stones (3stones) 100 (34472) 2015-02-28 10:31:49
#344 c u (chuiuiui) 100 (100) 2015-03-27 23:57:57
#345 Brian Kieslich (briank) 100 (6733) 2015-04-03 14:25:36
#346 S (Dingo_the_BB) 100 (6534) 2015-04-05 21:06:02
#347 sokrates (sokrates) 100 (2639) 2015-04-08 21:20:26
#348 Mike (Buckte) 100 (1621) 2015-04-11 22:56:23
#349 Martin Schulz (Kristallseele) 100 (2122) 2015-04-15 16:12:42
#350 Gabriel (Gabriel) 100 (400) 2015-04-15 19:35:22
#351 Kurkowski (ThomasK) 100 (2226) 2015-05-02 09:57:30
#352 Mehmet Adali (mehmetadali) 100 (2620) 2015-05-14 00:11:45
#353 partamier (yann) 100 (5435) 2015-05-15 14:56:41
#354 Ethan (EESearch) 100 (3925) 2015-05-22 20:03:57
#355 Michael Ammon (Ammonym) 100 (7719) 2015-05-24 02:35:27
#356 sam (sam) 100 (800) 2015-06-10 15:46:00
#357 Defekt75 (Defekt75) 100 (4325) 2015-06-12 21:24:27
#358 Mark van Heeswijk (markvh) 100 (2600) 2015-07-05 18:38:33
#359 Erik (Erox) 100 (20365) 2015-07-12 12:52:03
#360 Tradecraft (Tradecraft) 100 (5540) 2015-07-16 17:26:17
#361 sn0c (sn0c) 100 (200) 2015-08-03 21:35:25
#362 Peter Grössing (gpe) 100 (300) 2015-08-11 13:54:45
#363 Javantea (Javantea) 100 (38889) 2015-08-15 02:48:46
#364 Peter (TomBombadil) 100 (3417) 2015-08-31 12:08:01
#365 Sirius (Leznar) 100 (4552) 2015-09-08 15:13:57
#366 Joerg G. (SnifferMaster) 100 (17225) 2015-09-13 12:31:35
#367 Michael Jeffrey (empjay) 100 (2704) 2015-10-01 15:02:44
#368 J-L Morel (Rossignol) 100 (23146) 2015-10-06 15:11:43
#369 BananaJoee (BananaJoee) 100 (2515) 2015-10-06 23:06:46
#370 Martin (martinbucher) 100 (22726) 2015-10-24 14:47:36
#371 Szabó Zoltán (szabo.z87) 100 (47990) 2015-10-29 11:49:26
#372 S (Zyphe) 100 (8324) 2015-10-30 15:13:43
#373 Alain Collignon (vexilla72) 100 (49713) 2015-11-15 07:58:33
#374 Benjamin (Knorrke) 100 (1915) 2015-11-26 21:36:50
#375 Rainer (Rainer74) 100 (8417) 2015-12-04 21:38:19
#376 Joog (Joog) 100 (1208) 2015-12-07 15:57:45
#377 Andre Mueller (amueller) 100 (3215) 2015-12-19 21:38:27
#378 Andreas M (Diracspinor) 100 (600) 2015-12-21 15:04:08
#379 Dominik M. (Sgt. Pepper) 100 (43997) 2015-12-21 15:05:34
#380 T (Wagner) 100 (13934) 2015-12-22 19:40:18
#381 Marc (rcll0891) 100 (17460) 2016-01-03 17:08:13
#382 Daniel Neubacher (dneubacher) 100 (2413) 2016-01-06 17:28:57
#383 Casaubon (cfreuden) 100 (8515) 2016-01-11 10:19:21
#384 Michael (soilfront) 100 (2617) 2016-02-03 19:09:39
#385 D (devilchn) 100 (11142) 2016-02-04 16:19:19
#386 Thomas Bartscherer (Cipher) 100 (405) 2016-02-04 18:09:21
#387 Maria (julesjulchen) 100 (2819) 2016-02-22 12:58:06
#388 Peter (Garnet) 100 (14033) 2016-03-07 21:25:59
#389 Marco Manfredi (mkk9901) 100 (17686) 2016-03-09 08:59:27
#390 SMF (SMF) 100 (2208) 2016-03-12 19:34:55
#391 Lennart (Penthesilea) 100 (4110) 2016-04-16 21:15:57
#392 Wieland (wisch) 100 (6400) 2016-05-21 18:58:46
#393 Daniel Walder (ibex) 100 (14272) 2016-05-31 14:24:29
#394 Joris Diesvelt (SylverFox) 100 (4019) 2016-06-30 22:13:28
#395 Norbert Biermann (Norbert) 100 (40024) 2016-07-06 19:57:53
#396 mjustprocrastinating (kb) 100 (2116) 2016-07-15 23:30:54
#397 Benjamin Snavely (kaka) 100 (2708) 2016-08-06 21:44:42
#398 Chris Kolonko (ckolonko) 100 (900) 2016-08-09 18:47:00
#399 Martina (BonoV) 100 (2716) 2016-08-13 22:55:22
#400 Hajoe (Tintin-Muc) 100 (4307) 2016-08-14 23:15:55
#401 W.E. (NeoVenator) 100 (3005) 2016-08-20 21:04:51
#402 JoGo (JoGo) 100 (11285) 2016-08-28 15:06:32
#403 John Felix (johnf) 100 (3705) 2016-09-15 14:38:26
#404 Nicolas (nicosPavlov) 100 (70954) 2016-09-29 12:53:32
#405 Mirko Rendey (Biork) 100 (6295) 2016-10-04 12:20:00
#406 HeinzelMann (Ohm) 100 (5295) 2016-10-04 12:20:12
#407 Darchicourt (Darki) 100 (2306) 2016-10-17 13:34:08
#408 Christina Plump (1cc91) 100 (100) 2016-11-08 20:28:59
#409 Tristan1473 (Tristan1473) 100 (17553) 2016-11-09 12:20:35
#410 Michael (FoM) 100 (13778) 2016-11-16 22:07:29
#411 Julian (Lemmynator) 100 (5931) 2016-11-20 14:02:20
#412 Grigorios (grigorios) 100 (2205) 2016-12-03 22:39:28
#413 Merricx (Merricx) 100 (4516) 2016-12-12 18:04:16
#414 Steffen (stmue) 100 (2810) 2016-12-16 09:32:51
#415 Meine Registrierung (TryC3) 100 (6045) 2016-12-26 17:48:34
#416 Nicholas (nichelfish) 100 (2205) 2016-12-29 19:17:27
#417 J@cK (J@cK) 100 (3800) 2017-01-20 11:30:12
#418 Rene (ion) 100 (5617) 2017-02-26 10:08:51
#419 Mir Dim (mir0soft) 100 (46662) 2017-03-10 14:18:33
#420 chris (c2) 100 (51973) 2017-03-11 12:17:45
#421 Nimsoo Sun (Nimsoosun) 100 (620) 2017-03-13 20:27:45
#422 koaidien (koaidien) 100 (2215) 2017-03-17 02:50:52
#423 Chicken Attack (joker1569) 100 (2603) 2017-03-21 09:15:16
#424 sarah b (silva) 100 (2802) 2017-03-21 18:25:43
#425 Julian (guenni3000) 100 (500) 2017-04-01 22:52:05
You must be logged in to solve the challenge
Pages [1] 1 Show All  
 
 
powered by the CrypTool project  CrypTool

 

   +++    [20:10 - 25.05.2017] kasia-tutej solved the Level I challenge 'Number Sequence — Part 2'    +++    [15:58 - 25.05.2017] kasia-tutej solved the Level I challenge 'Number Sequence'    +++    [13:56 - 25.05.2017] mir0soft solved the Level I challenge 'ECDH-Key Exchange for Beginners'    +++    [07:50 - 25.05.2017] joelhdzhdz solved the Level II challenge 'Alice's Birthday Party (Part 1)'    +++    [03:35 - 25.05.2017] tryeng solved the Level I challenge 'A hidden word — Part 2'    +++